Orbital Elements at Epoch 2459000.5 (2020-May-31.0) TDB
Reference: JPL 18 (heliocentric ecliptic J2000)
Element | Value | Uncertainty (1-sigma) | Units |
e | .07694879477205854 | 5.0439e-08 | |
a | 3.091368785204458 | 3.3404e-08 | au |
q | 2.853491682987013 | 1.6853e-07 | au |
i | 4.201599479948959 | 5.5497e-06 | deg |
node | 92.87469244061711 | 6.9904e-05 | deg |
peri | 190.1973141070778 | 8.1599e-05 | deg |
M | 336.033873303385 | 3.8012e-05 | deg |
tp | 2459132.666078132640 (2020-Oct-10.16607813) | 0.00020917 | TDB |
period | 1985.293190262185 5.44 | 3.2179e-05 8.81e-08 | d yr |
n | .1813334180391044 | 2.9392e-09 | deg/d |
Q | 3.329245887421905 | 3.5975e-08 | au |
|
| | Orbit Determination Parameters
Additional Information
|